Time,TemperatureF,DewpointF,PressureIn,WindDirection,WindDirectionDegrees,WindSpeedMPH,WindSpeedGustMPH,Humidity,HourlyPrecipIn,Conditions,Clouds,dailyrainin,SoftwareType,DateUTC
2013-05-31 00:11:00,77.8,72.0,29.68,SSW,203,7.0,14.0,82,0.00,,,0.00,weatherlink.com 1.10,2013-05-31 05:11:00,
2013-05-31 00:26:00,77.8,72.0,29.68,SE,135,7.0,11.0,82,0.00,,,0.00,weatherlink.com 1.10,2013-05-31 05:26:00,
2013-05-31 00:41:00,78.0,72.0,29.68,SW,217,9.0,11.0,82,0.00,,,0.00,weatherlink.com 1.10,2013-05-31 05:41:00,
2013-05-31 00:56:00,78.3,72.0,29.67,SE,135,6.0,16.0,81,0.00,,,0.00,weatherlink.com 1.10,2013-05-31 05:56:00,
2013-05-31 01:11:00,78.4,72.0,29.67,South,176,8.0,12.0,81,0.00,,,0.00,weatherlink.com 1.10,2013-05-31 06:11:00,
2013-05-31 01:26:00,78.4,72.0,29.66,SE,144,6.0,12.0,81,0.00,,,0.00,weatherlink.com 1.10,2013-05-31 06:26:00,
2013-05-31 01:41:00,78.3,72.0,29.66,SSE,158,6.0,13.0,81,0.00,,,0.00,weatherlink.com 1.10,2013-05-31 06:41:00,
2013-05-31 01:56:00,78.3,72.0,29.66,SW,225,8.0,16.0,81,0.00,,,0.00,weatherlink.com 1.10,2013-05-31 06:56:00,
2013-05-31 02:11:00,78.1,72.0,29.66,SE,131,6.0,16.0,81,0.00,,,0.00,weatherlink.com 1.10,2013-05-31 07:11:00,
2013-05-31 02:26:00,78.0,72.0,29.66,SW,218,3.0,15.0,81,0.00,,,0.00,weatherlink.com 1.10,2013-05-31 07:26:00,
2013-05-31 02:41:00,77.8,72.0,29.65,SW,226,9.0,13.0,82,0.00,,,0.00,weatherlink.com 1.10,2013-05-31 07:41:00,
2013-05-31 02:56:00,77.5,72.0,29.65,SSW,204,4.0,12.0,82,0.00,,,0.00,weatherlink.com 1.10,2013-05-31 07:56:00,
2013-05-31 03:11:00,77.4,72.0,29.65,SE,145,6.0,14.0,83,0.00,,,0.00,weatherlink.com 1.10,2013-05-31 08:11:00,
2013-05-31 03:26:00,77.2,72.0,29.66,SE,143,7.0,19.0,83,0.00,,,0.00,weatherlink.com 1.10,2013-05-31 08:26:00,
2013-05-31 03:41:00,76.9,72.0,29.66,South,184,7.0,13.0,84,0.00,,,0.00,weatherlink.com 1.10,2013-05-31 08:41:00,
2013-05-31 03:57:00,76.8,72.0,29.67,SW,219,7.0,16.0,84,0.00,,,0.00,weatherlink.com 1.10,2013-05-31 08:57:00,
2013-05-31 04:11:00,76.5,72.0,29.67,SSW,193,5.0,14.0,85,0.00,,,0.00,weatherlink.com 1.10,2013-05-31 09:11:00,
2013-05-31 04:26:00,76.1,71.0,29.68,SSE,153,6.0,12.0,85,0.00,,,0.00,weatherlink.com 1.10,2013-05-31 09:26:00,
2013-05-31 04:41:00,76.1,72.0,29.68,SSE,158,6.0,13.0,86,0.00,,,0.00,weatherlink.com 1.10,2013-05-31 09:41:00,
2013-05-31 04:56:00,76.0,72.0,29.69,SW,229,5.0,13.0,86,0.00,,,0.00,weatherlink.com 1.10,2013-05-31 09:56:00,
2013-05-31 05:11:00,75.8,71.0,29.70,SSE,158,8.0,14.0,86,0.00,,,0.00,weatherlink.com 1.10,2013-05-31 10:11:00,
2013-05-31 05:26:00,75.8,71.0,29.71,SSW,197,3.0,11.0,86,0.00,,,0.00,weatherlink.com 1.10,2013-05-31 10:26:00,
2013-05-31 05:41:00,75.6,71.0,29.71,SE,136,8.0,11.0,86,0.00,,,0.00,weatherlink.com 1.10,2013-05-31 10:41:00,
2013-05-31 05:56:00,75.3,71.0,29.72,SSE,158,7.0,12.0,87,0.00,,,0.00,weatherlink.com 1.10,2013-05-31 10:56:00,
2013-05-31 06:11:00,75.1,71.0,29.72,SE,128,5.0,13.0,87,0.00,,,0.00,weatherlink.com 1.10,2013-05-31 11:11:00,
2013-05-31 06:26:00,75.0,71.0,29.73,SE,134,5.0,10.0,88,0.00,,,0.00,weatherlink.com 1.10,2013-05-31 11:26:00,
2013-05-31 06:41:00,74.2,70.0,29.73,WSW,245,3.0,9.0,87,0.00,,,0.00,weatherlink.com 1.10,2013-05-31 11:41:00,
2013-05-31 06:56:00,-999.0,-99.9,29.73,North,-999,-999.0,-999.0,-999,0.00,,,0.00,weatherlink.com 1.10,2013-05-31 11:56:00,
2013-05-31 07:11:00,-999.0,-99.9,29.74,North,-999,-999.0,-999.0,-999,0.00,,,0.00,weatherlink.com 1.10,2013-05-31 12:11:00,
2013-05-31 07:26:00,-999.0,-99.9,29.75,North,-999,-999.0,-999.0,-999,0.00,,,0.00,weatherlink.com 1.10,2013-05-31 12:26:00,
2013-05-31 07:42:00,-999.0,-99.9,29.75,North,-999,-999.0,-999.0,-999,0.00,,,0.00,weatherlink.com 1.10,2013-05-31 12:42:00,
2013-05-31 07:57:00,-999.0,-99.9,29.76,North,-999,-999.0,-999.0,-999,0.00,,,0.00,weatherlink.com 1.10,2013-05-31 12:57:00,
2013-05-31 08:12:00,75.8,71.0,29.76,South,173,3.0,12.0,86,0.00,,,0.00,weatherlink.com 1.10,2013-05-31 13:12:00,
2013-05-31 08:27:00,76.5,72.0,29.76,South,176,2.0,15.0,85,0.00,,,0.00,weatherlink.com 1.10,2013-05-31 13:27:00,
2013-05-31 08:42:00,76.9,72.0,29.76,SSE,167,2.0,13.0,85,0.00,,,0.00,weatherlink.com 1.10,2013-05-31 13:42:00,
2013-05-31 08:57:00,77.2,72.0,29.76,SE,129,3.0,11.0,85,0.00,,,0.00,weatherlink.com 1.10,2013-05-31 13:57:00,
2013-05-31 09:12:00,77.9,72.0,29.76,SSE,148,7.0,15.0,83,0.00,,,0.00,weatherlink.com 1.10,2013-05-31 14:12:00,
2013-05-31 09:27:00,78.6,73.0,29.76,WSW,256,4.0,19.0,82,0.00,,,0.00,weatherlink.com 1.10,2013-05-31 14:27:00,
2013-05-31 09:42:00,78.8,73.0,29.76,South,183,9.0,17.0,81,0.00,,,0.00,weatherlink.com 1.10,2013-05-31 14:42:00,
2013-05-31 09:57:00,79.5,73.0,29.76,SW,219,9.0,13.0,81,0.00,,,0.00,weatherlink.com 1.10,2013-05-31 14:57:00,
2013-05-31 10:12:00,80.0,73.0,29.75,SSW,208,5.0,15.0,80,0.00,,,0.00,weatherlink.com 1.10,2013-05-31 15:12:00,
2013-05-31 10:28:00,80.7,73.0,29.75,SW,217,8.0,18.0,77,0.00,,,0.00,weatherlink.com 1.10,2013-05-31 15:28:00,
2013-05-31 10:42:00,81.6,74.0,29.74,WSW,246,7.0,17.0,77,0.00,,,0.00,weatherlink.com 1.10,2013-05-31 15:42:00,
2013-05-31 10:57:00,82.1,74.0,29.74,SE,132,5.0,15.0,77,0.00,,,0.00,weatherlink.com 1.10,2013-05-31 15:57:00,
2013-05-31 11:12:00,82.2,74.0,29.74,ESE,117,7.0,15.0,75,0.00,,,0.00,weatherlink.com 1.10,2013-05-31 16:12:00,
2013-05-31 11:27:00,82.9,73.0,29.73,SSW,203,7.0,20.0,73,0.00,,,0.00,weatherlink.com 1.10,2013-05-31 16:27:00,
2013-05-31 11:42:00,83.5,74.0,29.73,SW,233,10.0,19.0,73,0.00,,,0.00,weatherlink.com 1.10,2013-05-31 16:42:00,
2013-05-31 11:57:00,83.8,74.0,29.73,SE,145,8.0,16.0,73,0.00,,,0.00,weatherlink.com 1.10,2013-05-31 16:57:00,
2013-05-31 12:12:00,84.0,74.0,29.73,SE,136,9.0,16.0,71,0.00,,,0.00,weatherlink.com 1.10,2013-05-31 17:12:00,
2013-05-31 12:27:00,84.8,75.0,29.72,SSE,149,3.0,15.0,72,0.00,,,0.00,weatherlink.com 1.10,2013-05-31 17:27:00,
2013-05-31 12:42:00,84.8,74.0,29.72,SSE,165,6.0,16.0,69,0.00,,,0.00,weatherlink.com 1.10,2013-05-31 17:42:00,
2013-05-31 12:57:00,84.8,74.0,29.72,SE,136,10.0,17.0,70,0.00,,,0.00,weatherlink.com 1.10,2013-05-31 17:57:00,
2013-05-31 13:12:00,85.4,74.0,29.72,SE,146,9.0,17.0,69,0.00,,,0.00,weatherlink.com 1.10,2013-05-31 18:12:00,
2013-05-31 13:27:00,85.2,74.0,29.72,SSE,148,6.0,20.0,69,0.00,,,0.00,weatherlink.com 1.10,2013-05-31 18:27:00,
2013-05-31 13:42:00,85.6,74.0,29.71,SSE,156,9.0,17.0,69,0.00,,,0.00,weatherlink.com 1.10,2013-05-31 18:42:00,
2013-05-31 13:57:00,85.7,74.0,29.71,South,172,6.0,17.0,69,0.00,,,0.00,weatherlink.com 1.10,2013-05-31 18:57:00,
2013-05-31 14:12:00,86.4,74.0,29.70,SE,127,5.0,18.0,67,0.00,,,0.00,weatherlink.com 1.10,2013-05-31 19:12:00,
2013-05-31 14:27:00,86.4,74.0,29.70,SE,141,5.0,20.0,66,0.00,,,0.00,weatherlink.com 1.10,2013-05-31 19:27:00,
2013-05-31 14:42:00,86.8,75.0,29.70,SSW,193,3.0,21.0,67,0.00,,,0.00,weatherlink.com 1.10,2013-05-31 19:42:00,
2013-05-31 14:57:00,87.1,74.0,29.69,SSE,150,6.0,16.0,66,0.00,,,0.00,weatherlink.com 1.10,2013-05-31 19:57:00,
2013-05-31 15:12:00,87.0,75.0,29.69,South,186,5.0,17.0,67,0.00,,,0.00,weatherlink.com 1.10,2013-05-31 20:12:00,
2013-05-31 15:27:00,87.4,75.0,29.68,SE,132,11.0,15.0,67,0.00,,,0.00,weatherlink.com 1.10,2013-05-31 20:27:00,
2013-05-31 15:42:00,87.7,76.0,29.68,SSE,152,4.0,18.0,68,0.00,,,0.00,weatherlink.com 1.10,2013-05-31 20:42:00,
2013-05-31 15:57:00,88.3,76.0,29.68,South,169,7.0,14.0,67,0.00,,,0.00,weatherlink.com 1.10,2013-05-31 20:57:00,
2013-05-31 16:12:00,88.9,77.0,29.67,SSE,165,7.0,13.0,67,0.00,,,0.00,weatherlink.com 1.10,2013-05-31 21:12:00,
2013-05-31 16:27:00,87.9,77.0,29.66,SW,221,5.0,12.0,69,0.00,,,0.00,weatherlink.com 1.10,2013-05-31 21:27:00,
2013-05-31 16:42:00,88.2,76.0,29.66,SSE,155,6.0,15.0,68,0.00,,,0.00,weatherlink.com 1.10,2013-05-31 21:42:00,
2013-05-31 16:57:00,88.7,76.0,29.66,SSE,162,5.0,13.0,67,0.00,,,0.00,weatherlink.com 1.10,2013-05-31 21:57:00,
2013-05-31 17:12:00,88.5,77.0,29.65,ESE,108,5.0,14.0,68,0.00,,,0.00,weatherlink.com 1.10,2013-05-31 22:12:00,
2013-05-31 17:27:00,88.4,77.0,29.64,SSE,153,5.0,16.0,68,0.00,,,0.00,weatherlink.com 1.10,2013-05-31 22:27:00,
2013-05-31 17:42:00,88.0,76.0,29.62,SE,146,6.0,14.0,68,0.00,,,0.00,weatherlink.com 1.10,2013-05-31 22:42:00,
2013-05-31 17:57:00,86.6,75.0,29.60,ESE,117,6.0,18.0,69,0.00,,,0.00,weatherlink.com 1.10,2013-05-31 22:57:00,
2013-05-31 18:12:00,85.7,75.0,29.57,South,179,10.0,16.0,71,0.00,,,0.00,weatherlink.com 1.10,2013-05-31 23:12:00,
2013-05-31 18:27:00,84.6,75.0,29.56,SSE,159,13.0,20.0,72,0.00,,,0.00,weatherlink.com 1.10,2013-05-31 23:27:00,
2013-05-31 18:42:00,84.1,75.0,29.58,SE,133,5.0,17.0,73,0.00,,,0.00,weatherlink.com 1.10,2013-05-31 23:42:00,
2013-05-31 18:57:00,83.7,74.0,29.59,SE,146,4.0,17.0,73,0.00,,,0.00,weatherlink.com 1.10,2013-05-31 23:57:00,
2013-05-31 19:12:00,83.4,74.0,29.59,ESE,120,11.0,15.0,72,0.00,,,0.00,weatherlink.com 1.10,2013-06-01 00:12:00,
2013-05-31 19:27:00,83.1,74.0,29.58,SW,215,6.0,17.0,73,0.00,,,0.00,weatherlink.com 1.10,2013-06-01 00:27:00,
2013-05-31 19:57:00,82.7,73.0,29.58,SE,136,5.0,18.0,72,0.00,,,0.00,weatherlink.com 1.10,2013-06-01 00:57:00,
2013-05-31 20:12:00,82.6,73.0,29.58,WSW,253,7.0,14.0,73,0.00,,,0.00,weatherlink.com 1.10,2013-06-01 01:12:00,
2013-05-31 20:27:00,82.7,72.0,29.57,South,177,10.0,23.0,71,0.00,,,0.00,weatherlink.com 1.10,2013-06-01 01:27:00,
2013-05-31 20:42:00,82.8,73.0,29.57,South,170,8.0,17.0,71,0.00,,,0.00,weatherlink.com 1.10,2013-06-01 01:42:00,
2013-05-31 20:57:00,82.6,72.0,29.58,South,188,6.0,18.0,71,0.00,,,0.00,weatherlink.com 1.10,2013-06-01 01:57:00,
2013-05-31 21:12:00,82.6,72.0,29.59,South,172,4.0,24.0,71,0.00,,,0.00,weatherlink.com 1.10,2013-06-01 02:12:00,
2013-05-31 21:27:00,82.4,72.0,29.58,SSE,151,8.0,19.0,71,0.00,,,0.00,weatherlink.com 1.10,2013-06-01 02:27:00,
2013-05-31 21:43:00,82.1,72.0,29.58,SE,134,10.0,23.0,72,0.00,,,0.00,weatherlink.com 1.10,2013-06-01 02:43:00,
2013-05-31 21:58:00,81.9,72.0,29.59,SE,142,9.0,19.0,73,0.00,,,0.00,weatherlink.com 1.10,2013-06-01 02:58:00,
2013-05-31 22:13:00,81.8,73.0,29.61,SE,146,3.0,17.0,74,0.00,,,0.00,weatherlink.com 1.10,2013-06-01 03:13:00,
2013-05-31 22:28:00,81.7,73.0,29.61,South,177,5.0,15.0,74,0.00,,,0.00,weatherlink.com 1.10,2013-06-01 03:28:00,
2013-05-31 22:43:00,81.6,73.0,29.61,SSE,153,4.0,15.0,74,0.00,,,0.00,weatherlink.com 1.10,2013-06-01 03:43:00,
2013-05-31 22:58:00,81.7,73.0,29.62,SSE,159,3.0,15.0,74,0.00,,,0.00,weatherlink.com 1.10,2013-06-01 03:58:00,
2013-05-31 23:13:00,81.7,73.0,29.62,East,101,4.0,19.0,74,0.00,,,0.00,weatherlink.com 1.10,2013-06-01 04:13:00,
2013-05-31 23:28:00,81.4,73.0,29.64,NNE,22,1.0,11.0,75,0.00,,,0.00,weatherlink.com 1.10,2013-06-01 04:28:00,
2013-05-31 23:43:00,81.1,73.0,29.65,NE,36,0.0,6.0,76,0.00,,,0.00,weatherlink.com 1.10,2013-06-01 04:43:00,
2013-05-31 23:58:00,81.0,73.0,29.66,SSE,153,1.0,6.0,76,0.00,,,0.00,weatherlink.com 1.10,2013-06-01 04:58:00,